Location: Ferrari
(40.8500°N, 14.8500°E)
Time: 04:20:04
(UTC+00:00)

Daily predictions for brighter satellites

Satellite Brightness Start Highest point End
(mag) Time Altitude Azimuth Time Altitude Azimuth Time Altitude Azimuth
Cosmos 1825 2.7 00:13:02 52° NW 00:13:02 52° NW 00:16:12 10° N
Cosmos 1076 Rocket 4.3 00:12:59 40° ESE 00:13:23 41° E 00:17:22 10° NNE
Cosmos 540 Rocket 3.3 00:15:11 66° SSW 00:15:56 89° WNW 00:21:04 10° NNE
DELTA 2 R/B (1) 3.4 00:16:58 60° SSW 00:17:43 68° SSE 00:23:14 10° E
Cosmos 1408 4.2 00:19:18 25° WNW 00:19:18 25° WNW 00:21:51 10° NNW
NOSS 2-2 (E) 3.8 00:20:42 45° ENE 00:20:42 45° ENE 00:23:30 10° NE
Cosmos 990 Rocket 4.1 00:17:22 10° NNW 00:22:23 51° WSW 00:22:37 51° WSW
Cosmos 405 Rocket 3.8 00:23:36 34° NW 00:23:36 34° NW 00:26:30 10° N
SL-16 R/B 4.3 00:19:56 12° W 00:23:16 18° NW 00:27:09 10° N
Cosmos 841 Rocket 3.3 00:23:03 61° SSW 00:23:58 89° WNW 00:29:09 10° NNE
Cosmos 2058 3.0 00:24:22 62° WNW 00:24:22 62° WNW 00:28:19 10° N
USA 229 DEB 4.5 00:22:35 24° WSW 00:26:06 42° NW 00:32:33 10° NNE
USA 229 4.4 00:22:43 24° WSW 00:26:12 43° NW 00:32:39 10° NNE
Cosmos 1242 Rocket 3.0 00:22:38 10° N 00:26:09 57° ENE 00:26:09 57° ENE
Cosmos 2221 2.3 00:23:51 10° N 00:28:09 86° W 00:28:23 79° SSW
Cosmos 1656 Rocket 3.6 00:22:33 10° NNW 00:28:16 86° WSW 00:30:16 42° SSE
X-37B 2.1 00:28:47 34° NNW 00:29:13 36° N 00:32:12 10° ENE
Nadezhda 4 Rocket 4.0 00:30:48 45° SSW 00:32:40 70° W 00:38:48 10° N
NOSS 2-2 (C) 3.4 00:34:04 54° E 00:34:04 54° E 00:37:08 10° NE
Cosmos 2026 Rocket 4.4 00:31:26 31° SSE 00:34:19 57° E 00:40:31 10° NNE
Cosmos 1898 Rocket 3.7 00:30:40 10° NNW 00:35:41 50° WSW 00:36:11 48° WSW
Cosmos 1937 Rocket 3.4 00:30:46 10° NNW 00:36:04 71° WSW 00:37:19 51° S
Cosmos 2369 Rocket 2.5 00:32:51 10° NW 00:38:16 45° WSW 00:38:58 43° SW
USA 307 2.7 00:38:07 75° SW 00:38:27 89° SSE 00:42:43 10° NE
Meteor 2-15 4.5 00:32:22 10° N 00:38:32 76° E 00:41:34 32° SSE
Aureole 3 Rocket 3.5 00:35:44 10° N 00:39:51 69° E 00:41:59 35° SSE
ARGOS Delta rocket 4.1 00:39:34 10° N 00:45:04 80° WNW 00:46:49 45° SSW
ATLAS 5 CENTAUR R/B 1.1 00:48:04 73° SSW 00:48:26 87° ESE 00:52:42 10° NE
ERBS 4.2 00:51:55 20° ESE 00:51:55 20° ESE 00:53:52 10° ENE
SL-19 R/B 4.4 00:46:11 10° NNE 00:51:26 63° ESE 00:53:45 34° S
Cosmos 2263 4.5 00:46:32 10° NW 00:51:57 48° WSW 00:53:06 41° SW
ADEOS Rocket 3.9 00:45:55 10° SSE 00:53:04 58° ENE 00:59:37 10° N
Cosmos 1633 2.4 00:53:22 72° WNW 00:53:22 72° WNW 00:56:50 10° N
Helios 1B rocket 2.3 00:49:18 10° NNE 00:53:24 84° ESE 00:54:08 59° S
Cosmos 1814 Rocket 4.0 00:51:51 45° SW 00:53:24 73° WNW 00:58:36 10° NNE
USA 308 3.0 00:53:26 50° WSW 00:54:24 69° NW 00:58:39 10° NE
UNK 3.6 00:54:25 43° S 00:55:56 87° WSW 01:00:35 10° NNW
TIMED 4.5 00:56:30 54° SW 00:57:22 74° WNW 01:01:46 10° NNE
SeaSat 1 4.3 00:55:08 10° ENE 00:58:50 21° ESE 01:01:32 14° SE
Helios 1A 4.2 01:00:06 26° W 01:00:06 26° W 01:03:17 10° NW
SL-16 R/B 2.5 00:59:52 30° S 01:03:06 72° WSW 01:09:19 10° NNW
Cosmos 1570 Rocket 4.2 01:01:44 39° SW 01:03:30 60° WNW 01:08:40 10° NNE
Cosmos 1606 3.0 01:00:26 10° NNW 01:04:08 48° W 01:04:12 48° W
ATLAS 5 CENTAUR R/B 4.4 01:02:52 26° SSW 01:09:34 34° S 01:53:56 10° ESE
Cosmos 1933 3.7 01:05:37 10° N 01:09:41 62° E 01:11:43 27° SSE
Cosmos 372 Rocket 4.0 01:05:52 10° NNW 01:11:01 60° WSW 01:13:10 34° S
USA 290 2.9 01:11:15 40° WNW 01:11:16 40° WNW 01:14:20 10° N
USA 305 3.6 01:10:31 29° W 01:12:19 47° NW 01:16:26 10° NE
Meteor 1-28 Rocket 4.4 01:10:53 16° SE 01:13:37 41° ENE 01:17:13 10° N
CZ-4C R/B 3.5 01:11:22 17° SSE 01:13:45 25° ESE 01:18:05 10° ENE
Cosmos 1092 Rocket 4.2 01:11:05 32° SW 01:13:45 56° W 01:19:47 10° N
Tianhe-1 3.8 01:17:27 11° SE 01:17:27 11° SE 01:17:43 10° ESE
Lacrosse 4 Rocket 1.3 01:13:15 10° NNW 01:17:21 84° ENE 01:20:08 19° SSE
Cosmos 2208 Rocket 4.4 01:16:33 32° SW 01:18:50 55° WNW 01:24:13 10° N
Cosmos 1151 Rocket 4.3 01:15:01 10° N 01:19:01 38° ENE 01:22:59 10° SSE
BREEZE-M R/B 2.9 01:18:12 28° W 01:19:54 62° NNW 01:25:11 10° ENE
ARIANE 5 R/B 4.4 01:18:02 10° NE 01:22:03 24° E 01:26:03 10° SSE
Resurs 1-4 Rocket 2.8 01:17:07 10° N 01:22:05 41° WNW 01:24:23 27° WSW
Cosmos 1766 Rocket 4.2 01:21:58 22° SSE 01:24:37 54° E 01:28:59 10° NNE
Meteor 1-29 2.8 01:22:46 10° N 01:26:10 74° WNW 01:26:57 49° SW
MINOTAUR 4 R/B 3.9 01:26:32 43° S 01:27:33 70° WSW 01:31:05 10° NNW
NOSS 2-2 (D) 4.4 01:30:21 23° W 01:31:34 29° NW 01:34:48 10° NNE
Landsat 4 3.7 01:28:14 10° N 01:32:01 71° WNW 01:33:22 37° SSW
NPP 4.3 01:28:13 10° N 01:33:17 42° WNW 01:35:57 25° SW
ADEOS II 2.1 01:28:38 10° N 01:33:52 71° WNW 01:36:50 26° SSW
Meteor 2-3 Rocket 3.7 01:31:29 27° SSW 01:34:38 72° W 01:40:13 10° N
USA 306 4.2 01:32:05 17° W 01:34:50 34° NNW 01:38:44 10° NE
Okean 3 Rocket 3.8 01:32:35 23° S 01:35:15 68° E 01:39:36 10° NNE
Lacrosse 5 rocket 4.3 01:34:52 10° NNW 01:37:14 16° NNE 01:39:39 10° ENE
Cosmos 1655 Rocket 4.4 01:32:13 14° S 01:37:36 63° E 01:43:46 10° NNE
FALCON 9 DEB 2.9 01:35:33 10° NW 01:38:57 85° SW 01:42:20 10° SE
CZ-2D R/B 3.3 01:36:15 10° N 01:40:40 29° WNW 01:43:15 19° WSW
IRIDIUM 106 4.3 01:37:03 10° N 01:42:17 79° W 01:46:13 18° S
Alouette 2 Rocket 3.7 01:39:00 10° N 01:42:35 65° ENE 01:47:00 10° SSE
ASTEX 1 3.8 01:38:35 10° SSE 01:43:28 64° E 01:48:21 10° N
Cosmos 2151 4.1 01:44:56 23° WSW 01:46:23 29° WNW 01:50:05 10° NNW
IDEFIX/ARIANE 42P 2.6 01:43:03 10° NNE 01:48:20 84° ESE 01:52:17 18° SSW
Meteor 1-26 Rocket 4.4 01:51:48 10° NNW 01:57:35 61° W 02:03:13 11° S
DELTA 2 R/B (1) 3.5 01:58:32 10° W 02:04:05 77° S 02:09:38 10° E
X-37B 0.8 02:02:57 10° WNW 02:06:07 73° NNE 02:09:17 10° ESE
Cosmos 1656 4.5 02:00:44 10° NNW 02:06:21 55° ENE 02:11:54 10° SE
CBERS-1 4.3 02:02:31 10° N 02:07:32 55° WNW 02:11:26 17° SW
IRS-1D 4.1 02:02:52 10° N 02:07:43 43° WNW 02:11:13 17° SW
BREEZE-M DEB (TANK) 3.8 02:06:06 10° NW 02:08:06 26° NNE 02:10:49 10° E
Cosmos 2292 Rocket 4.4 02:09:52 16° W 02:10:42 18° WNW 02:12:51 10° NNW
SL-08 R/B 3.9 02:06:32 10° SSE 02:11:05 59° ENE 02:15:46 10° N
IRS-1C 4.1 02:06:36 10° NNE 02:11:58 89° WNW 02:17:08 11° SSW
Cosmos 1812 2.7 02:08:09 10° N 02:12:00 87° E 02:15:49 10° S
Delta 2 Rocket 4.2 02:10:10 19° SW 02:12:15 30° S 02:15:35 10° ESE
Cosmos 1553 Rocket 4.4 02:06:23 10° NNW 02:12:19 45° W 02:17:51 11° SSW
USA 281 3.2 02:08:48 10° SSE 02:15:21 76° WSW 02:21:57 10° NNW
CZ-2C R/B 3.7 02:11:52 10° NNE 02:16:26 37° E 02:20:50 10° SSE
Cosmos 1697 Rocket 4.5 02:12:32 10° N 02:17:43 36° ENE 02:22:53 10° SE
FALCON 9 DEB 4.1 02:14:50 10° NW 02:17:51 44° NNE 02:20:52 10° ESE
GPS 2-04 Rocket1 3.3 02:15:43 16° WSW 02:18:27 36° S 02:21:58 10° ESE
S3M 4.1 02:12:25 10° NNW 02:18:28 61° W 02:24:35 10° S
Cosmos 2084 Rocket 3.6 02:15:40 15° SSW 02:18:47 59° ESE 02:22:42 10° NE
Cosmos 1782 3.6 02:15:11 10° NNW 02:18:48 33° W 02:21:41 14° SSW
MSX 3.9 02:14:56 10° N 02:20:41 72° WNW 02:26:21 10° SSW
Cosmos 1271 Rocket 2.9 02:17:12 10° NNW 02:20:50 49° W 02:24:27 10° S
CZ-4C R/B 3.5 02:20:14 12° S 02:23:14 40° W 02:26:31 10° NNW
ERBS 3.6 02:24:39 12° W 02:27:16 30° NW 02:30:11 10° NNE
Cosmos 773 Rocket 4.1 02:23:35 10° SSW 02:28:52 80° ESE 02:34:10 10° NNE
Cosmos 1500 Rocket 3.7 02:25:04 10° S 02:29:22 73° E 02:33:41 10° NNE
Cosmos 1328 Rocket 4.1 02:28:47 10° NNW 02:32:50 38° W 02:36:53 10° SSW
NOSS 3 (A) 2.7 02:32:23 22° SSW 02:33:11 89° S 02:34:50 10° NE
Cosmos 1743 Rocket 3.7 02:29:21 10° S 02:33:43 80° E 02:38:09 10° N
ATLAS 5 CENTAUR R/B 3.8 02:31:47 10° WNW 02:33:49 13° NNW 02:35:58 10° N
NOSS 3-2 (A) 4.3 02:26:42 10° NNW 02:34:24 80° NE 02:43:05 10° SE
FALCON 9 DEB 2.7 02:31:44 10° NW 02:34:49 85° SW 02:37:52 10° SE
SeaSat 1 2.9 02:31:47 10° NNE 02:36:33 50° WNW 02:41:18 10° SW
ADEOS Rocket 4.3 02:32:44 10° SSW 02:38:44 27° W 02:44:23 10° NW
Cosmos 44 3.7 02:33:47 10° SSW 02:38:58 71° ESE 02:44:23 10° NE
Meteor 1-10 Rocket 4.3 02:33:19 10° NNW 02:39:12 79° W 02:44:55 10° S
FALCON 9 DEB 2.9 02:38:35 10° NW 02:41:42 83° NE 02:44:47 10° SE
Meteor 2-6 Rocket 4.4 02:36:12 10° NNW 02:41:56 56° W 02:47:30 10° S
FALCON 9 DEB 2.7 02:42:00 10° NW 02:45:05 71° SW 02:48:08 10° SE
ALOS 3.5 02:40:45 10° NNE 02:45:12 42° E 02:49:36 10° S
Cosmos 1833 Rocket 2.7 02:41:04 10° SSW 02:46:42 86° WNW 02:52:24 10° NNE
Cosmos 1980 Rocket 4.3 02:42:27 10° N 02:47:28 32° ENE 02:52:27 10° ESE
Cosmos 2228 Rocket 3.5 02:46:34 10° N 02:51:05 70° E 02:55:30 10° SSE
Tianhe-1 1.5 02:49:44 10° WSW 02:52:47 49° SSE 02:55:52 10° E
Cosmos 1538 Rocket 4.4 02:49:07 10° S 02:54:26 69° ESE 02:59:44 10° NNE
Meteor 1-27 Rocket 3.8 02:49:40 10° N 02:55:16 87° E 03:00:47 10° S
Sich 1 3.7 02:51:40 10° S 02:55:57 58° E 03:00:18 10° NNE
FENGYUN 3A 4.2 02:51:35 10° NNE 02:56:59 64° E 03:02:22 10° S
Gbstr 26 Del rocket 4.4 02:52:53 10° SSW 02:57:17 40° SE 03:02:40 10° ENE
CZ-4B R/B 4.1 02:55:09 10° N 03:00:07 43° WNW 03:04:58 10° SW
ARIANE 5 R/B 3.2 02:56:38 10° N 03:01:14 38° WNW 03:05:50 10° SW
CZ-4C R/B 2.8 02:57:12 10° WSW 03:01:48 42° NW 03:07:19 10° NNE
